[[{"header":{"parameterUnit":"m.s-1","parameterCategory":1,"la1":30.2992,"la2":30.254,"lo1":-89.0895,"lo2":-89.0443,"dy":0.0025,"dx":0.0025,"nx":19,"ny":19,"refTime":"2026-03-18T09:00:00:Z","depth":0,"parameterNumber":2,"parameterNumberName":"U-component_of_WINDS"},"data":[0,0,0,3.787,3.7873,3.8032,3.8033,3.825,3.8253,0,0,0,0,0,0,0,0,0,0,0,3.7835,3.7837,3.7869,3.7874,3.8032,3.8033,3.825,3.8253,0,0,0,0,0,0,0,0,0,0,0,3.7834,3.7836,3.7839,3.7874,3.8032,3.8033,3.825,3.8124,0,0,0,0,0,0,0,0,0,0,3.7967,3.7947,3.7836,3.7839,3.7875,3.8032,3.8033,3.8117,3.8132,3.8186,0,3.824,0,3.825,3.8268,3.8269,0,0,0,3.7864,3.7936,3.7968,3.7839,3.7877,3.8032,3.7958,3.8125,3.8141,3.8205,3.8243,3.825,3.8254,3.827,3.8271,3.862,3.8622,0,0,3.7855,3.7869,3.7957,3.7979,3.7959,3.7953,3.7963,3.8135,3.8176,3.8244,3.8255,3.8257,3.8271,3.8273,3.8618,3.862,0,0,0,3.7836,3.7864,3.7891,3.797,3.7998,3.7958,3.7969,3.8168,3.8176,3.8257,3.826,3.8273,3.8276,3.8616,3.8619,3.8734,0,0,0,3.7831,3.7853,3.7888,3.7898,3.7995,3.8086,3.8,3.8164,3.8183,3.8259,3.8273,3.8278,3.8613,3.8617,3.8726,3.8786,0,0,0,3.782,3.7851,3.7879,3.7898,3.7967,3.8083,3.81,3.8168,3.8185,3.8269,3.8279,3.8612,3.8617,3.8719,3.8774,3.888,0,0,0,3.7812,3.7981,3.7881,3.8069,3.7966,3.8155,3.8099,3.8238,3.8324,3.8274,3.8614,3.8618,3.8717,3.8767,3.8872,3.897,3.9012,0,0,3.8032,3.8007,3.8117,3.8032,3.8242,3.8129,3.8355,3.842,3.8414,3.8551,3.8559,3.8729,3.8773,3.8878,3.9251,3.9285,0,0,0,3.8191,3.8269,3.8322,3.8405,3.8459,3.8509,3.8538,3.8561,3.8676,3.8488,3.8796,3.8822,3.8883,3.8929,3.8958,3.9007,3.8641,3.864,3.864,3.8521,3.8505,3.8684,3.8686,3.8767,3.8794,3.8857,3.8892,3.8853,3.8926,3.8966,3.9194,3.9248,3.927,3.9322,3.9018,3.9018,3.9019,3.9019,3.8839,3.8946,3.8889,3.9041,3.9022,3.9148,3.9179,3.9147,3.9259,3.9164,3.9216,3.9111,3.9308,3.9352,3.9028,3.9026,3.9025,3.9024,3.9024,3.9052,3.91,3.9126,3.9242,3.9333,3.9329,3.9439,3.9418,3.9398,3.9451,3.9488,3.9486,3.9479,3.947,3.9471,3.9472,3.9473,3.9473,3.9474,3.9261,3.9287,3.9384,3.9454,3.9502,3.9563,3.959,3.9636,3.9681,3.9657,3.9657,3.9608,3.9332,3.9261,3.9486,3.9484,3.9482,3.9481,3.948,3.9586,3.9508,3.9658,3.9707,3.9785,3.9874,3.9845,3.994,3.9975,4.0029,3.9969,3.977,3.9742,3.9719,3.966,3.9974,3.9974,3.9974,3.9974,3.9763,3.9747,3.9894,3.9972,4.0047,4.0035,4.02,4.0221,4.023,4.025,4.0201,4.0122,4.01,4.0085,4.0054,3.9999,4.0392,4.0393,4.0393,3.996,3.995,4.0096,4.0106,4.0164,4.0214,4.0367,4.0456,4.0451,4.041,4.0264,4.0246,4.0118,4.0078,4.0033,3.9985,3.9883,0,0]},{"header":{"parameterUnit":"m.s-1","parameterCategory":1,"la1":30.2992,"la2":30.254,"lo1":-89.0895,"lo2":-89.0443,"dy":0.0025,"dx":0.0025,"nx":19,"ny":19,"refTime":"2026-03-18T09:00:00:Z","depth":0,"parameterNumber":3,"parameterNumberName":"V-component_of_WINDS"},"data":[0,0,0,1.5831,1.5835,1.6032,1.6033,1.6266,1.6268,0,0,0,0,0,0,0,0,0,0,0,1.5763,1.5764,1.5831,1.5836,1.6032,1.6033,1.6265,1.6268,0,0,0,0,0,0,0,0,0,0,0,1.5762,1.5764,1.5765,1.5836,1.6032,1.6033,1.6265,1.6123,0,0,0,0,0,0,0,0,0,0,1.5935,1.5863,1.5763,1.5765,1.5837,1.6032,1.6033,1.6116,1.6132,1.6169,0,1.62,0,1.6238,1.6282,1.6283,0,0,0,1.5843,1.585,1.5912,1.5766,1.5839,1.6031,1.5946,1.6125,1.6143,1.6189,1.6204,1.6213,1.6241,1.6284,1.6285,1.6475,1.6475,0,0,1.5832,1.5793,1.59,1.5922,1.5892,1.5939,1.5952,1.6136,1.6149,1.6205,1.6219,1.6245,1.6285,1.6287,1.6474,1.6475,0,0,0,1.5796,1.5785,1.5843,1.5912,1.5949,1.5945,1.5959,1.6141,1.6163,1.6221,1.6248,1.6286,1.6289,1.6474,1.6474,1.6463,0,0,0,1.579,1.5764,1.5838,1.5816,1.5946,1.6048,1.5959,1.615,1.6172,1.6247,1.6286,1.6291,1.6473,1.6474,1.6462,1.6464,0,0,0,1.5753,1.576,1.5785,1.5813,1.5897,1.6046,1.6079,1.6156,1.6188,1.6283,1.6292,1.6473,1.6474,1.6461,1.6463,1.6501,0,0,0,1.5703,1.5773,1.5784,1.5872,1.5895,1.6037,1.6078,1.6187,1.6267,1.6287,1.6473,1.6474,1.6461,1.6462,1.65,1.6526,1.6534,0,0,1.577,1.578,1.5834,1.585,1.598,1.6011,1.6139,1.625,1.6294,1.6411,1.6417,1.6462,1.6463,1.6501,1.659,1.6595,0,0,0,1.5842,1.588,1.5924,1.5998,1.6083,1.6155,1.625,1.629,1.6391,1.6347,1.6488,1.649,1.6514,1.6528,1.6533,1.6555,1.6479,1.6479,1.6479,1.588,1.5932,1.6025,1.61,1.6171,1.6266,1.6328,1.6398,1.6432,1.6463,1.6499,1.6546,1.6561,1.6565,1.6588,1.6517,1.6517,1.6517,1.6517,1.5981,1.6043,1.6083,1.6187,1.6241,1.6329,1.6422,1.6441,1.653,1.6525,1.6548,1.6538,1.657,1.6592,1.6517,1.6517,1.6517,1.6517,1.6517,1.6012,1.605,1.6097,1.6208,1.6286,1.6359,1.6441,1.6487,1.6532,1.6555,1.6596,1.6596,1.6601,1.6571,1.6571,1.6572,1.6572,1.6572,1.6572,1.6025,1.6078,1.6142,1.6236,1.6288,1.6362,1.6455,1.6507,1.6576,1.6603,1.6604,1.6632,1.6563,1.6545,1.6575,1.6574,1.6574,1.6574,1.6573,1.6107,1.6095,1.6194,1.6246,1.6358,1.6431,1.6488,1.6589,1.6638,1.6676,1.6699,1.6641,1.6655,1.6651,1.6636,1.6688,1.6688,1.6688,1.6688,1.6133,1.6144,1.6254,1.6332,1.6415,1.6476,1.6583,1.6654,1.6726,1.6759,1.6758,1.6742,1.6736,1.6754,1.6748,1.6735,1.6811,1.6811,1.6811,1.6186,1.6206,1.629,1.636,1.645,1.6525,1.6627,1.6714,1.6793,1.6817,1.6786,1.6781,1.6755,1.6744,1.6768,1.6758,1.6734,0,0]}]]